SCP
0 -0 -0 -0 0 -0 -0 0 0 0 0 0 0 0 1 1 1 0 0 0 0 0 0 0 0 0 0 0 0 0 0 0 0 0 0 0 0 0 0 0 0 0 0 0
0 0 -0 0 -0 -0 -0 -0 -0 0 0 0 0 1 1 0 0 0 0 0 0 0 0 0 0 0 0 0 0 0 0 0 0 0 0 0 0 0 0 0 0 0 0 0
0 0 0 -0 -0 0 0 -0 0 0 0 1 1 1 0 0 0 0 0 0 0 0 0 0 0 0 0 0 0 0 0 0 0 0 0 0 0 0 0 0 0 0 0 0
0 0 -0 -0 0 0 0 0 0 0 0 0 0 0 0 0 0 0 0 0 0 0 0 0 0 0 0 0 0 0 0 0 0 0 0 0 0 0 0 0 0 0 0 0
0 0 -0 0 0 -0 0 0 0 0 0 0 0 0 0 0 0 0 0 0 0 0 0 0 0 0 0 0 0 0 0 0 0 0 0 0 0 0 0 0 0 0 0 0
0 0 -0 0 -0 0 0 0 0 0 0 0 0 0 0 0 0 0 0 0 0 0 0 0 0 0 0 0 0 0 0 0 0 0 0 0 0 0 0 0 0 0 0 0
0 0 -0 -0 -0 0 0 0 0 0 0 0 0 0 0 0 0 0 0 0 0 0 0 0 0 0 0 0 0 0 0 0 0 0 0 0 0 0 0 0 0 0 0 0
0 0 0 -0 -0 0 0 0 0 0 0 0 0 0 0 0 0 0 0 0 0 0 0 0 0 0 0 0 0 0 0 0 0 0 0 0 0 0 0 0 0 0 0 0
0 0 0 0 -0 0 0 0 0 0 0 0 0 0 0 0 0 0 0 0 0 0 0 0 0 0 0 0 0 0 0 0 0 0 0 0 0 0 0 0 0 0 0 0
0 0 -0 -0 -0 0 0 0 0 0 0 0 0 0 0 0 0 0 0 0 0 0 0 0 0 0 0 0 0 0 0 0 0 0 0 0 0 0 0 0 0 0 0 0
0 0 -0 -0 -0 0 0 0 0 0 0 0 0 0 0 0 0 0 0 0 0 0 0 0 0 0 0 0 0 0 0 0 0 0 0 0 0 0 0 0 0 0 0 0
0 0 0 -0 -0 -0 0 0 0 0 0 0 0 0 0 0 0 0 0 0 0 0 0 0 0 0 0 0 0 0 0 0 0 0 0 0 0 0 0 0 0 0 0 0
0 0 0 0 0 0 -0 0 0 0 0 0 0 0 0 0 0 0 0 0 0 0 0 0 0 0 0 0 0 0 0 0 0 0 0 0 0 0 0 0 0 0 0 0
0 0 0 0 0 0 0 0 -0 0 0 0 0 0 -0 0 0 0 0 0 0 0 0 0 0 0 0 0 0 0 0 0 0 0 0 0 0 0 0 0 0 0 0 0
0 0 0 0 0 0 0 0 -0 -0 -0 0 0 0 0 0 0 0 0 0 0 0 0 0 0 0 0 0 0 0 0 0 0 0 0 0 0 0 0 0 0 0 0 0
0 0 0 0 0 0 0 0 -0 0 -0 -0 -0 0 0 0 0 0 0 0 0 0 0 0 0 0 0 0 0 0 0 0 0 0 0 0 0 0 0 0 0 0 0 0
0 0 0 0 0 0 0 0 0 0 0 0 0 0 0 0 0 0 0 0 0 0 0 0 0 0 0 0 0 0 0 0 0 0 0 0 0 0 0 0 0 0 0 0
0 0 0 0 0 0 0 0 0 0 0 0 0 0 0 0 0 0 0 0 0 0 0 0 0 0 0 0 0 0 0 0 0 0 0 0 0 0 0 0 0 0 0 0
0 0 0 0 0 0 0 0 0 0 0 0 0 0 0 0 0 0 0 0 0 0 0 0 0 0 0 0 0 0 0 0 0 0 0 0 0 0 0 0 0 0 0 0
0 0 0 0 0 0 0 0 0 0 0 0 0 0 0 0 0 0 0 0 0 0 0 0 0 0 0 0 0 0 0 0 0 0 0 0 0 0 0 0 0 0 0 0
0 0 0 0 0 0 0 0 0 0 0 0 0 0 0 0 0 0 0 0 0 0 0 0 0 0 0 0 0 0 0 0 0 0 0 0 0 0 0 0 0 0 0 0
0 0 0 0 0 0 0 0 0 0 0 0 0 0 0 0 0 0 0 0 0 0 0 0 0 0 0 0 0 0 0 0 0 0 0 0 0 0 0 0 0 0 0 0
0 0 0 0 0 0 0 0 0 0 0 0 0 0 0 0 0 0 0 0 0 0 0 0 0 0 0 0 0 0 0 0 0 0 0 0 0 0 0 0 0 0 0 0
0 0 0 0 0 0 0 0 0 0 0 0 0 0 0 0 0 0 0 0 0 0 0 0 0 0 -0 0 0 0 0 0 0 0 0 0 0 0 0 0 0 0 0 0
-0 0 0 0 0 0 0 0 0 0 0 0 0 0 0 0 0 0 0 0 0 0 0 0 0 -0 -0 0 0 0 0 0 0 0 0 0 0 0 0 0 0 0 0 0
0 0 0 0 0 0 0 0 0 0 0 0 0 0 0 0 0 0 0 0 0 -0 -0 0 -0 -0 0 0 0 0 0 0 0 0 0 0 0 0 0 0 0 0 0 0
0 0 0 0 0 0 0 0 0 0 0 0 0 0 0 0 0 0 0 0 0 -0 -0 -0 -0 -0 0 -0 -0 0 0 0 0 0 0 0 0 0 0 0 0 0 0 0
Wind_Speed_500mb
24 27 26 21 17 18 23 28 13 18 29 35 22 42 46 66 79 75 70 75 86 92 91 87 81 74 65 62 60 58 58 59 56 51 47 43 39 33 26 19 14 13 12 12
8 9 15 15 20 21 26 20 24 22 33 33 35 54 48 65 74 70 72 78 87 95 92 79 79 80 78 73 69 59 60 59 56 52 46 40 34 27 21 18 16 15 15 15
8 3 10 12 6 17 18 15 22 12 15 35 31 36 38 59 66 75 77 84 91 91 83 86 82 84 81 72 64 62 63 60 55 49 42 36 30 26 21 18 16 15 15 14
5 5 6 9 22 13 20 23 26 15 20 41 40 57 59 58 71 74 80 85 90 99 95 91 85 81 78 72 69 65 62 57 49 43 38 34 29 24 21 19 18 17 17 16
6 6 4 9 17 13 14 17 28 7 40 44 68 82 51 64 71 75 80 85 95 97 93 88 83 81 80 73 67 62 58 52 44 38 36 32 29 26 25 19 18 18 17 16
6 4 7 8 31 39 4 5 24 20 34 40 53 25 8 54 86 84 87 92 98 94 94 90 84 80 79 71 64 57 53 47 41 36 33 30 27 24 23 21 20 22 18 16
12 5 5 19 49 25 10 10 36 18 10 37 24 25 50 73 88 89 93 96 91 89 90 86 81 75 73 66 59 52 46 44 42 37 32 27 25 20 15 14 14 19 21 21
8 6 3 50 31 15 9 41 32 37 48 72 78 71 66 83 93 93 92 83 82 91 88 78 68 64 65 60 55 49 45 42 38 33 30 26 21 17 11 10 13 17 24 24
7 6 16 41 34 49 30 16 18 53 48 77 80 71 63 79 88 84 78 81 82 83 81 73 61 54 57 54 47 44 42 40 36 32 29 26 18 16 12 11 13 15 16 18
12 6 28 40 55 44 20 31 47 56 59 77 85 77 68 75 77 80 74 76 77 77 73 69 57 49 49 47 41 37 39 40 35 29 30 25 19 16 11 11 14 15 17 21
8 10 29 45 52 39 38 46 56 67 65 76 86 82 81 69 75 72 73 70 71 70 66 61 50 46 42 40 36 38 38 37 38 33 28 23 18 15 13 13 17 21 24 22
5 21 12 20 33 32 38 46 57 79 71 80 75 76 66 53 62 65 61 62 63 60 56 52 45 42 40 39 34 38 42 41 36 31 27 22 20 19 19 22 24 28 30 30
10 23 17 17 30 32 43 49 62 77 78 85 69 65 67 64 59 54 57 51 48 47 46 42 40 40 39 38 34 34 40 41 36 30 28 25 22 19 23 27 25 27 28 27
14 12 10 24 20 36 41 49 57 64 69 72 70 64 62 59 56 52 52 51 44 44 46 44 44 43 38 35 33 39 44 39 36 33 29 26 26 25 23 24 22 21 20 21
19 17 19 17 30 36 44 51 65 69 68 70 64 66 64 66 64 59 56 52 51 51 50 48 51 50 45 45 46 44 41 38 34 35 34 33 32 30 28 24 20 18 15 16
13 15 18 27 29 38 43 49 59 60 63 67 69 66 61 59 58 57 54 51 54 46 48 51 52 48 45 43 43 43 40 36 36 36 33 30 28 25 24 20 17 15 12 14
11 12 17 21 26 32 40 44 53 61 65 69 65 60 57 57 55 51 49 47 50 50 46 45 46 40 37 35 35 40 40 35 30 28 26 23 20 19 18 16 14 13 12 15
1 10 14 20 24 30 36 43 48 54 57 56 60 54 54 53 54 51 47 45 45 45 43 41 38 37 36 34 35 35 32 30 27 26 26 22 18 16 15 14 13 11 10 14
8 14 18 18 22 33 38 42 47 50 53 56 54 48 45 47 48 47 43 39 40 44 42 38 34 33 34 32 32 31 28 27 25 25 23 19 17 16 14 13 12 10 10 10
17 20 21 20 21 30 39 43 49 54 50 50 47 43 43 40 36 34 34 39 41 41 41 36 31 30 30 29 24 25 24 23 21 20 19 18 15 13 13 12 10 9 8 7
21 20 21 22 27 32 35 38 43 46 48 42 36 36 36 36 31 31 36 43 44 39 35 30 25 25 23 21 20 21 19 18 17 17 16 14 13 12 11 8 8 8 6 5
24 24 23 25 28 33 35 38 39 42 41 37 35 38 41 41 36 34 32 34 38 35 30 26 22 17 16 18 18 17 16 15 14 13 11 11 10 9 7 5 6 7 7 7
21 21 25 24 29 34 37 37 34 36 40 41 39 34 26 21 21 28 32 32 31 31 29 24 18 14 14 14 13 12 12 12 11 9 7 6 6 4 2 2 4 6 8 9
20 17 15 22 26 32 38 36 34 34 31 32 27 23 23 27 29 28 27 27 27 27 26 21 17 15 14 12 12 12 12 11 10 8 6 5 4 3 2 3 4 5 9 13
24 22 20 19 23 28 32 38 39 35 33 30 28 28 27 20 17 22 26 24 26 27 25 22 19 15 14 12 13 13 13 13 12 12 14 13 12 10 9 8 8 9 12 14
25 24 21 19 20 25 31 38 34 35 31 30 27 27 28 25 21 21 23 24 23 26 23 20 18 17 15 14 11 12 14 13 10 11 12 12 10 8 9 10 12 14 17 19
25 24 24 23 21 22 26 32 35 34 32 27 23 24 27 28 25 22 23 22 20 23 25 24 20 19 16 15 12 12 12 9 7 7 5 2 3 7 11 15 19 23 26 27
Wind_Direction_500mb
279 262 255 244 203 194 214 228 251 307 287 297 165 144 139 139 129 129 126 127 138 144 147 146 145 144 142 141 145 150 151 149 147 148 150 147 147 148 150 149 135 115 107 110
297 14 206 201 185 199 251 261 239 253 275 267 144 120 129 130 130 128 127 128 135 140 139 136 136 135 136 137 139 144 145 145 146 147 147 148 147 145 139 126 110 105 112 110
14 324 130 130 39 323 315 306 294 241 239 125 113 118 118 124 128 127 126 130 133 134 134 136 134 134 134 137 141 146 145 142 144 145 144 142 140 135 124 113 104 102 103 101
338 343 320 43 22 35 321 296 325 234 123 92 85 83 95 113 118 120 125 129 130 136 137 135 134 135 134 138 141 142 140 140 142 142 140 138 133 127 115 102 99 97 92 82
314 341 318 21 13 351 357 328 345 77 101 101 99 84 57 101 113 118 123 126 129 135 134 135 135 135 135 135 137 137 137 137 138 140 138 135 131 117 97 91 88 81 74 68
356 18 353 358 321 314 282 340 345 323 125 122 118 106 88 109 125 121 123 127 132 135 136 133 133 137 136 135 137 135 137 137 137 138 137 138 131 117 102 84 73 62 55 51
352 353 97 354 322 308 318 5 306 32 58 106 98 100 117 115 118 123 126 128 130 133 133 132 136 139 134 136 135 134 136 136 135 135 133 136 127 116 103 75 58 35 29 27
309 330 22 352 345 3 305 332 99 80 100 101 105 109 110 117 122 128 128 128 130 129 129 129 134 137 131 131 129 132 133 134 132 132 131 129 128 120 96 74 53 27 6 11
334 337 321 322 292 302 284 250 90 106 103 109 107 106 107 113 124 124 124 128 131 128 126 127 132 134 133 126 130 132 134 132 133 132 127 126 127 116 97 70 35 17 22 31
313 52 336 331 360 21 91 131 115 108 106 108 104 105 104 109 119 122 123 125 127 127 124 124 127 130 126 128 133 136 135 133 131 131 125 129 125 113 96 60 43 46 59 65
278 348 339 4 8 42 85 114 113 110 110 110 107 113 116 117 120 121 124 126 129 127 126 122 127 127 126 128 135 138 137 134 131 128 131 130 123 105 81 76 72 73 68 72
327 335 310 311 9 83 90 100 111 123 115 115 120 122 122 121 124 123 125 126 125 124 123 123 127 127 128 129 138 139 136 133 133 133 133 124 109 103 92 85 78 74 68 64
284 326 354 26 67 93 109 113 122 124 127 127 133 132 132 128 125 129 124 118 119 122 123 125 128 129 131 136 140 143 140 132 131 128 122 114 105 100 106 96 83 74 63 55
315 307 27 49 65 100 115 124 126 125 124 126 130 130 129 126 125 124 119 119 123 124 123 125 127 127 127 127 131 130 125 127 126 123 116 113 109 107 108 105 97 87 72 53
50 73 82 91 106 111 120 130 121 120 126 126 130 128 128 126 122 117 115 120 122 119 117 120 118 113 114 114 114 117 120 127 129 122 116 111 106 105 104 104 100 90 74 47
75 89 102 101 110 119 129 126 128 124 127 126 125 127 128 124 117 115 115 122 121 120 118 115 111 109 108 110 112 110 109 111 116 116 115 110 106 105 103 98 93 86 74 52
104 83 91 103 115 123 127 131 135 136 137 135 132 133 132 128 127 127 126 126 122 120 120 117 112 112 112 113 116 115 113 112 113 116 122 119 111 104 98 94 90 80 60 35
136 144 130 120 124 133 136 140 144 142 140 136 130 136 136 135 134 132 128 127 129 123 118 113 112 112 112 114 118 119 118 114 119 123 116 119 118 108 99 93 85 73 56 32
104 137 138 128 129 132 137 141 139 137 136 133 134 136 135 133 134 131 128 129 131 126 120 116 115 115 115 115 114 112 112 115 117 115 116 111 100 92 88 86 85 82 72 54
98 121 137 141 142 135 133 131 130 132 133 137 146 146 141 138 138 135 136 141 142 133 122 119 118 115 111 110 115 121 120 117 115 109 102 97 93 92 84 82 89 80 71 58
125 123 122 122 127 131 129 133 134 139 148 157 156 151 148 140 140 136 142 143 142 140 132 122 118 115 113 122 126 126 125 121 112 105 106 106 100 93 84 90 78 66 48 34
137 135 140 144 147 151 154 156 159 155 157 159 157 154 150 148 151 147 143 144 143 143 140 138 138 137 141 132 128 126 121 120 124 126 121 118 108 100 95 75 56 36 22 8
138 136 144 146 159 159 155 158 161 160 157 157 158 158 158 152 146 151 147 149 155 159 157 158 157 150 143 142 136 128 131 137 137 136 135 128 108 102 94 33 24 26 21 7
176 172 150 155 163 167 168 167 164 161 159 157 158 162 159 156 150 154 159 160 163 165 165 164 155 143 135 135 138 147 154 144 132 129 124 108 94 68 45 45 48 24 3 358
190 186 178 168 167 172 173 169 167 165 165 165 164 162 161 152 158 161 160 161 158 158 159 160 155 148 142 145 149 147 139 129 117 105 100 98 88 81 72 55 28 7 354 347
188 188 181 175 178 180 180 179 176 175 175 173 173 177 179 177 165 157 163 164 167 172 171 171 168 171 176 174 161 152 149 138 125 117 113 103 91 66 39 22 6 354 347 343
187 187 183 181 182 186 188 188 187 187 182 182 181 181 181 183 185 182 178 175 173 181 186 186 186 187 185 183 178 179 178 181 171 165 169 181 310 324 328 330 329 328 326 324
Wind_Speed_850mb
24 27 26 21 17 18 23 28 13 18 29 35 22 42 46 66 79 75 70 75 86 92 91 87 81 74 65 62 60 58 58 59 56 51 47 43 39 33 26 19 14 13 12 12
8 9 15 15 20 21 26 20 24 22 33 33 35 54 48 65 74 70 72 78 87 95 92 79 79 80 78 73 69 59 60 59 56 52 46 40 34 27 21 18 16 15 15 15
8 3 10 12 6 17 18 15 22 12 15 35 31 36 38 59 66 75 77 84 91 91 83 86 82 84 81 72 64 62 63 60 55 49 42 36 30 26 21 18 16 15 15 14
5 5 6 9 22 13 20 23 26 15 20 41 40 57 59 58 71 74 80 85 90 99 95 91 85 81 78 72 69 65 62 57 49 43 38 34 29 24 21 19 18 17 17 16
6 6 4 9 17 13 14 17 28 7 40 44 68 82 51 64 71 75 80 85 95 97 93 88 83 81 80 73 67 62 58 52 44 38 36 32 29 26 25 19 18 18 17 16
6 4 7 8 31 39 4 5 24 20 34 40 53 25 8 54 86 84 87 92 98 94 94 90 84 80 79 71 64 57 53 47 41 36 33 30 27 24 23 21 20 22 18 16
12 5 5 19 49 25 10 10 36 18 10 37 24 25 50 73 88 89 93 96 91 89 90 86 81 75 73 66 59 52 46 44 42 37 32 27 25 20 15 14 14 19 21 21
8 6 3 50 31 15 9 41 32 37 48 72 78 71 66 83 93 93 92 83 82 91 88 78 68 64 65 60 55 49 45 42 38 33 30 26 21 17 11 10 13 17 24 24
7 6 16 41 34 49 30 16 18 53 48 77 80 71 63 79 88 84 78 81 82 83 81 73 61 54 57 54 47 44 42 40 36 32 29 26 18 16 12 11 13 15 16 18
12 6 28 40 55 44 20 31 47 56 59 77 85 77 68 75 77 80 74 76 77 77 73 69 57 49 49 47 41 37 39 40 35 29 30 25 19 16 11 11 14 15 17 21
8 10 29 45 52 39 38 46 56 67 65 76 86 82 81 69 75 72 73 70 71 70 66 61 50 46 42 40 36 38 38 37 38 33 28 23 18 15 13 13 17 21 24 22
5 21 12 20 33 32 38 46 57 79 71 80 75 76 66 53 62 65 61 62 63 60 56 52 45 42 40 39 34 38 42 41 36 31 27 22 20 19 19 22 24 28 30 30
10 23 17 17 30 32 43 49 62 77 78 85 69 65 67 64 59 54 57 51 48 47 46 42 40 40 39 38 34 34 40 41 36 30 28 25 22 19 23 27 25 27 28 27
14 12 10 24 20 36 41 49 57 64 69 72 70 64 62 59 56 52 52 51 44 44 46 44 44 43 38 35 33 39 44 39 36 33 29 26 26 25 23 24 22 21 20 21
19 17 19 17 30 36 44 51 65 69 68 70 64 66 64 66 64 59 56 52 51 51 50 48 51 50 45 45 46 44 41 38 34 35 34 33 32 30 28 24 20 18 15 16
13 15 18 27 29 38 43 49 59 60 63 67 69 66 61 59 58 57 54 51 54 46 48 51 52 48 45 43 43 43 40 36 36 36 33 30 28 25 24 20 17 15 12 14
11 12 17 21 26 32 40 44 53 61 65 69 65 60 57 57 55 51 49 47 50 50 46 45 46 40 37 35 35 40 40 35 30 28 26 23 20 19 18 16 14 13 12 15
1 10 14 20 24 30 36 43 48 54 57 56 60 54 54 53 54 51 47 45 45 45 43 41 38 37 36 34 35 35 32 30 27 26 26 22 18 16 15 14 13 11 10 14
8 14 18 18 22 33 38 42 47 50 53 56 54 48 45 47 48 47 43 39 40 44 42 38 34 33 34 32 32 31 28 27 25 25 23 19 17 16 14 13 12 10 10 10
17 20 21 20 21 30 39 43 49 54 50 50 47 43 43 40 36 34 34 39 41 41 41 36 31 30 30 29 24 25 24 23 21 20 19 18 15 13 13 12 10 9 8 7
21 20 21 22 27 32 35 38 43 46 48 42 36 36 36 36 31 31 36 43 44 39 35 30 25 25 23 21 20 21 19 18 17 17 16 14 13 12 11 8 8 8 6 5
24 24 23 25 28 33 35 38 39 42 41 37 35 38 41 41 36 34 32 34 38 35 30 26 22 17 16 18 18 17 16 15 14 13 11 11 10 9 7 5 6 7 7 7
21 21 25 24 29 34 37 37 34 36 40 41 39 34 26 21 21 28 32 32 31 31 29 24 18 14 14 14 13 12 12 12 11 9 7 6 6 4 2 2 4 6 8 9
20 17 15 22 26 32 38 36 34 34 31 32 27 23 23 27 29 28 27 27 27 27 26 21 17 15 14 12 12 12 12 11 10 8 6 5 4 3 2 3 4 5 9 13
24 22 20 19 23 28 32 38 39 35 33 30 28 28 27 20 17 22 26 24 26 27 25 22 19 15 14 12 13 13 13 13 12 12 14 13 12 10 9 8 8 9 12 14
25 24 21 19 20 25 31 38 34 35 31 30 27 27 28 25 21 21 23 24 23 26 23 20 18 17 15 14 11 12 14 13 10 11 12 12 10 8 9 10 12 14 17 19
25 24 24 23 21 22 26 32 35 34 32 27 23 24 27 28 25 22 23 22 20 23 25 24 20 19 16 15 12 12 12 9 7 7 5 2 3 7 11 15 19 23 26 27
Wind_Direction_850mb
279 262 255 244 203 194 214 228 251 307 287 297 165 144 139 139 129 129 126 127 138 144 147 146 145 144 142 141 145 150 151 149 147 148 150 147 147 148 150 149 135 115 107 110
297 14 206 201 185 199 251 261 239 253 275 267 144 120 129 130 130 128 127 128 135 140 139 136 136 135 136 137 139 144 145 145 146 147 147 148 147 145 139 126 110 105 112 110
14 324 130 130 39 323 315 306 294 241 239 125 113 118 118 124 128 127 126 130 133 134 134 136 134 134 134 137 141 146 145 142 144 145 144 142 140 135 124 113 104 102 103 101
338 343 320 43 22 35 321 296 325 234 123 92 85 83 95 113 118 120 125 129 130 136 137 135 134 135 134 138 141 142 140 140 142 142 140 138 133 127 115 102 99 97 92 82
314 341 318 21 13 351 357 328 345 77 101 101 99 84 57 101 113 118 123 126 129 135 134 135 135 135 135 135 137 137 137 137 138 140 138 135 131 117 97 91 88 81 74 68
356 18 353 358 321 314 282 340 345 323 125 122 118 106 88 109 125 121 123 127 132 135 136 133 133 137 136 135 137 135 137 137 137 138 137 138 131 117 102 84 73 62 55 51
352 353 97 354 322 308 318 5 306 32 58 106 98 100 117 115 118 123 126 128 130 133 133 132 136 139 134 136 135 134 136 136 135 135 133 136 127 116 103 75 58 35 29 27
309 330 22 352 345 3 305 332 99 80 100 101 105 109 110 117 122 128 128 128 130 129 129 129 134 137 131 131 129 132 133 134 132 132 131 129 128 120 96 74 53 27 6 11
334 337 321 322 292 302 284 250 90 106 103 109 107 106 107 113 124 124 124 128 131 128 126 127 132 134 133 126 130 132 134 132 133 132 127 126 127 116 97 70 35 17 22 31
313 52 336 331 360 21 91 131 115 108 106 108 104 105 104 109 119 122 123 125 127 127 124 124 127 130 126 128 133 136 135 133 131 131 125 129 125 113 96 60 43 46 59 65
278 348 339 4 8 42 85 114 113 110 110 110 107 113 116 117 120 121 124 126 129 127 126 122 127 127 126 128 135 138 137 134 131 128 131 130 123 105 81 76 72 73 68 72
327 335 310 311 9 83 90 100 111 123 115 115 120 122 122 121 124 123 125 126 125 124 123 123 127 127 128 129 138 139 136 133 133 133 133 124 109 103 92 85 78 74 68 64
284 326 354 26 67 93 109 113 122 124 127 127 133 132 132 128 125 129 124 118 119 122 123 125 128 129 131 136 140 143 140 132 131 128 122 114 105 100 106 96 83 74 63 55
315 307 27 49 65 100 115 124 126 125 124 126 130 130 129 126 125 124 119 119 123 124 123 125 127 127 127 127 131 130 125 127 126 123 116 113 109 107 108 105 97 87 72 53
50 73 82 91 106 111 120 130 121 120 126 126 130 128 128 126 122 117 115 120 122 119 117 120 118 113 114 114 114 117 120 127 129 122 116 111 106 105 104 104 100 90 74 47
75 89 102 101 110 119 129 126 128 124 127 126 125 127 128 124 117 115 115 122 121 120 118 115 111 109 108 110 112 110 109 111 116 116 115 110 106 105 103 98 93 86 74 52
104 83 91 103 115 123 127 131 135 136 137 135 132 133 132 128 127 127 126 126 122 120 120 117 112 112 112 113 116 115 113 112 113 116 122 119 111 104 98 94 90 80 60 35
136 144 130 120 124 133 136 140 144 142 140 136 130 136 136 135 134 132 128 127 129 123 118 113 112 112 112 114 118 119 118 114 119 123 116 119 118 108 99 93 85 73 56 32
104 137 138 128 129 132 137 141 139 137 136 133 134 136 135 133 134 131 128 129 131 126 120 116 115 115 115 115 114 112 112 115 117 115 116 111 100 92 88 86 85 82 72 54
98 121 137 141 142 135 133 131 130 132 133 137 146 146 141 138 138 135 136 141 142 133 122 119 118 115 111 110 115 121 120 117 115 109 102 97 93 92 84 82 89 80 71 58
125 123 122 122 127 131 129 133 134 139 148 157 156 151 148 140 140 136 142 143 142 140 132 122 118 115 113 122 126 126 125 121 112 105 106 106 100 93 84 90 78 66 48 34
137 135 140 144 147 151 154 156 159 155 157 159 157 154 150 148 151 147 143 144 143 143 140 138 138 137 141 132 128 126 121 120 124 126 121 118 108 100 95 75 56 36 22 8
138 136 144 146 159 159 155 158 161 160 157 157 158 158 158 152 146 151 147 149 155 159 157 158 157 150 143 142 136 128 131 137 137 136 135 128 108 102 94 33 24 26 21 7
176 172 150 155 163 167 168 167 164 161 159 157 158 162 159 156 150 154 159 160 163 165 165 164 155 143 135 135 138 147 154 144 132 129 124 108 94 68 45 45 48 24 3 358
190 186 178 168 167 172 173 169 167 165 165 165 164 162 161 152 158 161 160 161 158 158 159 160 155 148 142 145 149 147 139 129 117 105 100 98 88 81 72 55 28 7 354 347
188 188 181 175 178 180 180 179 176 175 175 173 173 177 179 177 165 157 163 164 167 172 171 171 168 171 176 174 161 152 149 138 125 117 113 103 91 66 39 22 6 354 347 343
187 187 183 181 182 186 188 188 187 187 182 182 181 181 181 183 185 182 178 175 173 181 186 186 186 187 185 183 178 179 178 181 171 165 169 181 310 324 328 330 329 328 326 324